Location: Unspecified
(48.7670°N, 0.0000°E)
Time: 10:27:59
(UTC+00:00)

Vanguard 2 Rocket - Pass Details

Date: 21 June 2019
Orbit: 553 x 3327 km, 32.9° (Epoch: 16 August)

Event Time Altitude Azimuth Distance (km) Brightness Sun altitude
Rises 21:27:56 0° 217° (SW) 4,051 10.1 -10.0°
Reaches altitude 10° 21:30:47 10° 205° (SSW) 3,419 9.5 -10.3°
Maximum altitude 21:38:07 28° 151° (SSE) 3,068 9.0 -11.0°
Drops below altitude 10° 21:49:11 10° 102° (ESE) 5,295 10.4 -12.0°
Sets 21:55:01 0° 93° (E) 6,728 11.0 -12.4°
